{"data":{"norad_id":68146,"intl_designator":"2026-049E","name":"STARLINK-36980","alt_names":[],"object_type":"PAYLOAD","status":"ACTIVE","operator":null,"country":"US","launch_date":"2026-03-13","launch_site_code":"AFWTR","launch_vehicle":null,"mission":null,"orbit_class":"UNKNOWN","rcs_meters":null,"size_class":null,"mass_kg":null,"dimensions":null,"purposes":["comms"],"wikipedia_slug":null,"has_3d_model":false,"image_url":null,"decayed_at":null,"tle_current":{"epoch":"2026-05-24T23:40:10.915680Z","epoch_age_seconds":69530,"freshness":"FRESH","line1":"1 68146U 26049E   26144.98623745  .00020418  00000+0  63292-3 0  9996","line2":"2 68146  97.2851 166.7055 0001624  92.4371 267.7058 15.33451288 11342","mean_motion":15.33451288,"eccentricity":0.0001624,"inclination_deg":97.2851,"raan_deg":166.7055,"arg_perigee_deg":92.4371,"mean_anomaly_deg":267.7058,"bstar":0.00063292,"rev_number":1134,"period_min":93.90581958936,"perigee_km":464.41305525599,"apogee_km":466.6358765001,"semimajor_km":6843.661465878,"source":"CELESTRAK","updated_at":"2026-05-25T13:38:21.847128Z"}}}